Location: Antichan
(42.9728°N, 0.6667°E)
Time: 17:35:06
(UTC+00:00)

Cosmos 1023 Rocket - Pass Details

Date: 15 August 2020
Orbit: 737 x 772 km, 74.1° (Epoch: 18 September)

Event Time Altitude Azimuth Distance (km) Brightness Sun altitude
Rises 19:21:38 0° 192° (SSW) 3,230 7.6 -4.7°
Reaches altitude 10° 19:24:00 10° 190° (S) 2,308 6.9 -5.1°
Maximum altitude 19:29:13 71° 107° (ESE) 815 4.5 -5.9°
Drops below altitude 10° 19:34:28 10° 24° (NNE) 2,320 7.0 -6.8°
Sets 19:36:51 0° 23° (NNE) 3,247 7.8 -7.2°
